Location: Newark
(46.9000°N, 28.3500°E)
Time: 09:03:57
(UTC+00:00)

Altair - Visible Passes

Search period start: 24 August 2019 00:00
Search period end: 03 September 2019 00:00
Orbit: 1501 x 1683 km, 47.2° (Epoch: 23 August)

Date Brightness Start Highest point End Pass type
(mag) Time Alt. Az. Time Alt. Az. Time Alt. Az.
24 Aug 7.9 00:32:30 34° SSW 00:36:27 50° SE 00:45:30 10° ENE visible
24 Aug 7.6 02:30:59 10° WSW 02:40:47 86° SSE 02:50:13 10° E visible
24 Aug 9.2 22:10:35 14° ESE 22:10:35 14° ESE 22:13:15 10° E visible
25 Aug 7.9 00:08:35 39° S 00:11:21 47° SE 00:20:19 10° ENE visible
25 Aug 7.6 02:06:37 13° WSW 02:15:36 85° SSE 02:25:03 10° E visible
25 Aug 9.3 21:46:40 11° ESE 21:46:40 11° ESE 21:47:25 10° E visible
25 Aug 7.9 23:44:40 42° SSE 23:46:14 44° SE 23:55:08 10° ENE visible
26 Aug 7.5 01:42:40 19° WSW 01:50:25 83° SSE 01:59:54 10° ENE visible
26 Aug 8.0 23:20:43 41° SSE 23:21:08 42° SE 23:29:56 10° ENE visible
27 Aug 7.5 01:18:43 25° WSW 01:25:14 81° SSE 01:34:45 10° ENE visible
27 Aug 8.1 22:56:44 39° SE 22:56:44 39° SE 23:04:43 10° ENE visible
28 Aug 7.5 00:54:45 32° WSW 01:00:04 78° SSE 01:09:35 10° ENE visible
28 Aug 8.3 22:32:45 34° ESE 22:32:45 34° ESE 22:39:29 10° ENE visible
29 Aug 7.5 00:30:45 40° SW 00:34:53 76° SSE 00:44:26 10° ENE visible
29 Aug 7.6 02:29:55 10° W 02:39:45 88° N 02:49:12 10° E visible
29 Aug 8.5 22:08:44 29° ESE 22:08:44 29° ESE 22:14:15 10° ENE visible
30 Aug 7.5 00:06:44 50° SW 00:09:43 73° SSE 00:19:16 10° ENE visible
30 Aug 7.6 02:04:44 10° W 02:14:33 88° N 02:24:02 10° E visible
30 Aug 8.7 21:44:43 24° E 21:44:43 24° E 21:48:59 10° ENE visible
30 Aug 7.4 23:42:42 60° SSW 23:44:32 71° SSE 23:54:06 10° ENE visible
31 Aug 7.6 01:40:42 15° W 01:49:22 88° N 01:58:52 10° E visible
31 Aug 9.0 21:20:40 19° E 21:20:40 19° E 21:23:41 10° ENE visible
31 Aug 7.4 23:18:41 66° S 23:19:23 68° SSE 23:28:56 10° ENE visible
01 Sep 7.5 01:16:40 20° W 01:24:09 88° N 01:33:43 10° E visible
01 Sep 9.1 20:56:37 15° E 20:56:37 15° E 20:58:23 10° E visible
01 Sep 7.5 22:54:37 64° SE 22:54:37 64° SE 23:03:46 10° ENE visible
02 Sep 7.5 00:52:37 26° W 00:58:56 88° N 01:08:32 10° E visible
02 Sep 7.6 02:54:04 10° WNW 03:03:50 78° SSW 03:13:11 10° ESE visible
02 Sep 9.3 20:32:35 11° E 20:32:35 11° E 20:33:02 10° E visible
02 Sep 7.7 22:30:34 57° ESE 22:30:34 57° ESE 22:38:36 10° ENE visible
